Theta_e
297 295 292 295 296 294 294 292 291 291 294 294 295 295 298 300 300 301 302 303 304 304 308 308 307 309 319 325 328 332 334 335 332 331 329 328 327 327 328 330 330 329 326 324
295 291 296 297 295 293 293 291 290 292 294 294 294 293 297 299 299 301 302 303 303 305 306 306 306 306 306 311 320 325 330 334 332 332 331 331 329 328 330 327 329 330 326 322
292 293 296 294 291 291 292 291 290 290 291 292 291 292 293 296 296 298 300 302 303 302 303 305 304 305 307 306 309 317 323 329 334 332 331 329 327 325 326 325 326 329 326 323
293 292 293 292 291 293 289 293 292 290 290 287 291 286 292 295 294 296 298 299 300 300 300 300 302 303 303 305 306 309 316 322 330 333 329 327 326 323 326 326 326 327 325 323
291 290 291 291 292 294 291 293 292 291 290 289 289 287 291 290 292 296 298 298 298 301 302 303 302 303 305 306 304 304 307 317 324 332 329 327 326 327 329 327 325 324 323 324
292 293 293 294 291 294 293 292 291 291 290 283 289 288 289 291 293 295 295 297 296 299 301 301 302 304 307 312 311 306 304 310 319 326 327 327 326 325 324 325 324 324 321 321
290 290 292 293 291 292 293 291 284 282 282 281 285 285 290 294 294 294 296 296 300 300 301 301 302 304 306 311 310 311 307 307 315 322 324 325 325 325 324 322 323 317 314 311
285 283 290 293 293 290 291 291 285 279 279 283 284 283 290 295 294 295 295 298 300 300 300 300 300 302 304 306 309 312 313 314 315 319 322 324 324 323 322 320 319 317 316 313
286 286 292 292 293 294 289 287 292 283 278 283 286 288 293 296 294 294 295 297 300 299 300 300 300 301 303 305 306 309 311 312 313 315 315 316 316 316 315 314 315 314 310 306
290 284 290 291 294 293 292 293 285 287 281 279 284 284 287 290 293 295 296 298 299 299 299 300 300 300 301 303 305 309 308 308 310 311 312 312 312 312 312 310 308 307 306 305
291 289 287 291 289 289 288 287 288 288 286 283 280 285 292 294 295 296 298 298 299 299 299 299 299 300 301 302 303 305 308 308 306 306 306 306 305 305 305 307 307 309 307 306
292 290 285 287 291 293 292 290 290 285 282 285 284 285 291 292 295 296 297 297 298 298 298 298 298 299 300 301 302 302 304 304 306 308 308 307 306 306 307 306 305 304 304 301
293 289 283 285 288 290 288 289 291 291 289 285 283 286 292 293 293 296 297 297 297 297 297 297 298 299 299 299 300 301 301 302 302 303 304 304 304 304 304 303 302 301 301 300
295 288 286 282 287 290 287 288 289 289 286 285 286 289 291 293 294 295 296 297 298 297 297 298 298 298 298 298 299 299 299 300 301 301 302 301 301 301 301 301 300 299 299 298
293 286 288 289 289 291 290 288 288 286 288 285 288 289 292 295 296 298 300 299 297 295 295 297 296 297 297 297 297 297 297 297 298 299 298 297 297 297 298 297 297 296 296 296
294 286 288 285 289 289 287 289 290 289 290 290 290 290 295 297 299 299 298 298 296 296 296 296 296 295 295 295 295 294 295 295 296 296 294 294 294 293 293 293 292 292 292 293
289 286 286 283 287 287 284 288 289 290 291 291 287 292 296 293 294 296 298 298 297 296 296 295 295 295 294 294 293 294 293 294 293 292 290 290 290 290 290 290 290 289 290 289
287 287 287 285 285 278 288 292 294 291 293 293 292 293 295 295 296 297 300 298 297 296 295 295 295 294 293 292 292 291 292 292 291 289 288 288 288 287 287 288 288 288 288 288
293 289 285 283 283 285 286 287 289 290 290 295 293 294 295 293 292 293 295 298 298 296 295 295 294 293 291 290 290 290 289 289 288 287 286 285 284 284 285 285 286 286 287 287
289 289 286 284 281 279 288 287 292 294 286 294 296 295 295 292 290 295 291 292 292 292 292 291 291 290 289 289 289 288 287 287 285 284 284 283 283 283 283 284 284 284 284 284
284 285 284 284 282 285 289 287 292 285 289 289 291 294 292 291 296 293 291 290 291 291 290 290 289 288 287 286 287 285 285 283 283 283 283 282 282 282 282 283 283 283 283 283
284 283 284 283 282 280 287 289 287 290 287 290 291 292 291 291 289 289 289 288 288 288 288 287 285 282 282 283 285 283 281 280 280 280 280 280 280 281 282 281 283 282 282 283
283 288 286 287 287 287 289 289 292 290 291 289 291 290 290 287 287 288 287 287 287 287 285 285 282 280 279 279 281 280 277 277 276 277 276 278 278 280 280 281 282 283 283 283
282 283 286 287 287 287 287 288 288 289 289 289 289 289 289 288 287 285 285 284 283 283 282 281 280 278 276 276 275 275 273 273 273 275 276 277 277 277 279 280 281 282 283 283
283 283 282 283 283 285 287 288 290 288 288 285 285 285 287 287 285 285 284 282 281 279 278 279 278 276 273 273 272 269 268 268 272 273 274 275 276 276 277 278 279 280 282 281
282 282 284 286 287 289 289 290 288 288 287 286 284 282 283 284 284 284 282 281 278 276 275 274 273 273 271 270 268 265 263 265 267 273 273 272 273 274 275 276 278 280 281 282
Wind_Speed
1 8 12 16 12 2 6 5 6 2 3 4 9 11 16 9 9 12 13 13 13 14 12 10 11 12 14 15 17 19 19 19 14 11 10 9 9 8 8 8 13 14 12 14
5 12 11 7 8 8 8 7 4 2 1 2 3 12 15 14 9 13 14 14 15 13 11 9 8 9 12 15 18 18 20 20 17 12 11 9 9 8 9 8 11 13 14 13
11 2 10 8 9 9 6 11 5 1 2 2 6 14 9 6 6 9 14 17 12 12 13 10 9 11 11 14 15 17 20 20 19 18 9 6 4 2 7 9 9 14 14 14
8 2 10 7 9 10 8 9 6 7 4 6 1 8 5 5 8 9 13 9 9 9 9 7 7 8 9 10 9 14 15 17 16 18 15 13 11 9 8 8 8 9 13 13
7 11 13 10 8 13 2 7 6 3 5 3 5 7 3 2 9 12 7 5 4 2 4 4 4 4 4 4 6 8 12 14 15 16 18 13 13 10 7 7 9 10 10 12
3 1 4 5 4 7 13 10 7 3 2 7 8 8 8 6 11 4 2 6 2 1 1 1 2 2 2 2 1 4 8 12 13 16 18 19 15 12 6 8 8 7 6 8
4 4 3 4 9 6 4 13 4 3 5 6 0 6 12 8 9 4 6 4 1 2 1 2 3 4 4 4 3 1 6 9 12 15 16 17 14 14 11 9 7 5 4 3
14 10 11 7 6 12 16 14 7 8 6 2 1 12 6 7 4 5 5 4 3 3 2 1 2 4 4 5 5 4 4 5 9 12 13 13 14 5 4 6 4 4 4 3
12 14 4 6 4 14 9 11 4 8 2 2 6 8 11 12 10 9 9 5 5 3 4 3 1 2 4 4 5 4 4 3 2 3 3 3 4 5 5 5 4 3 3 3
8 6 1 4 4 3 11 13 5 5 7 7 9 8 13 2 10 7 8 8 6 5 6 5 4 3 3 3 4 5 4 4 3 4 3 3 4 4 4 4 4 4 4 4
8 3 4 6 14 19 7 8 5 4 5 7 6 9 5 15 9 14 8 5 5 5 5 3 2 2 3 3 3 4 5 5 4 4 3 5 4 4 4 4 5 5 5 4
10 5 6 12 1 5 11 15 18 9 10 6 3 12 3 4 4 9 9 7 6 5 5 4 3 3 4 4 3 4 4 5 5 5 6 6 6 5 4 4 4 3 4 4
11 3 5 2 5 4 10 8 15 10 3 10 8 14 2 1 5 5 10 8 6 6 6 5 5 5 5 5 5 5 4 5 5 6 6 6 5 5 4 4 4 3 4 4
15 3 13 18 10 9 9 12 13 14 6 16 12 28 6 6 10 9 8 7 7 6 6 6 6 6 5 5 6 5 5 4 5 5 5 5 4 4 4 3 2 3 1 2
11 12 9 15 0 6 8 15 20 17 24 15 28 22 19 12 13 15 13 10 8 7 8 8 7 7 6 7 7 5 5 5 4 6 6 5 4 3 2 1 3 3 2 1
5 2 5 6 8 6 3 12 20 24 24 21 24 25 2 9 12 11 13 12 11 10 9 7 7 7 6 6 6 5 5 5 4 7 6 5 4 3 2 3 2 2 1 1
9 8 5 14 8 5 7 22 16 15 21 20 24 28 7 7 11 13 14 13 14 13 12 10 9 8 6 6 5 5 5 5 7 7 6 5 3 3 4 3 2 2 2 2
9 9 3 4 8 10 12 7 17 21 19 17 20 12 9 14 12 11 10 15 14 13 13 11 9 9 7 6 6 6 5 6 6 6 5 4 4 4 3 2 3 3 3 3
7 9 5 6 9 3 3 6 9 16 22 25 20 16 12 5 3 6 8 7 10 12 10 10 9 9 8 7 5 6 6 6 6 5 4 3 3 3 3 4 4 3 2 1
9 7 6 5 6 10 3 4 3 7 11 10 16 22 20 9 11 11 10 8 10 11 11 12 10 9 8 5 4 6 6 6 6 5 4 4 4 4 5 4 4 3 3 3
6 5 8 6 3 6 4 4 4 8 3 3 4 6 9 11 8 4 12 10 10 10 11 11 10 9 6 3 5 7 6 7 5 5 4 5 5 4 4 3 2 3 4 4
7 6 4 4 6 11 6 6 9 1 1 3 3 5 8 6 8 13 13 14 13 13 11 10 10 8 5 4 5 7 8 5 5 5 5 6 6 5 4 4 4 3 4 5
7 6 7 9 6 2 10 1 2 2 3 4 3 4 8 9 9 14 14 13 12 12 9 7 10 9 7 7 6 7 4 6 5 4 5 5 6 5 4 5 5 5 4 4
3 1 3 2 2 3 7 2 3 3 2 0 0 5 9 11 14 11 10 10 10 9 9 6 9 8 7 6 7 6 5 5 3 4 4 4 4 6 4 4 4 5 5 5
2 9 6 4 2 2 6 9 8 4 2 2 2 4 9 13 12 12 11 10 10 9 7 6 7 7 7 5 5 6 6 5 4 4 4 5 4 6 6 5 5 5 6 6
6 6 7 6 6 3 2 3 5 7 6 6 7 6 4 6 12 12 10 8 9 10 7 7 6 7 5 4 4 4 4 4 3 3 3 4 4 4 4 6 8 7 10 12
Wind_Direction
81 198 199 190 193 133 145 173 182 130 111 219 241 263 270 258 257 259 246 243 247 245 249 231 220 221 222 224 224 220 214 209 204 197 193 194 195 192 202 212 215 207 207 199
166 217 202 178 163 153 167 169 167 110 94 237 293 274 267 264 243 239 253 252 239 243 241 231 218 215 213 222 224 223 220 214 210 204 199 204 196 202 201 201 214 216 209 197
201 159 160 163 166 175 194 211 181 176 133 89 308 273 240 243 242 246 246 250 263 249 257 253 240 237 227 221 221 223 221 218 211 212 198 196 168 150 194 198 205 209 205 202
225 88 160 169 189 190 208 203 188 146 186 251 328 285 248 250 265 242 250 238 244 241 249 268 266 257 243 241 232 229 226 223 219 207 206 196 206 198 208 203 202 203 201 201
173 171 165 189 200 192 185 152 156 109 205 271 183 258 257 337 270 251 227 183 176 228 261 286 303 301 288 277 242 228 225 220 216 211 209 201 209 216 208 195 190 196 198 206
102 24 192 165 77 176 141 108 79 82 194 249 218 233 248 204 233 279 157 134 175 276 282 353 6 344 30 9 259 211 215 220 214 212 210 214 208 211 193 193 192 196 194 203
139 175 159 154 113 128 174 160 134 202 211 255 17 217 263 232 234 244 163 188 293 239 187 47 30 29 38 48 38 71 182 200 205 210 211 215 218 214 202 187 194 170 168 190
191 202 174 171 206 169 186 187 180 194 196 198 124 233 245 252 257 245 259 268 274 208 169 104 31 27 30 39 50 67 121 160 189 200 209 215 221 187 175 170 167 180 193 197
201 213 175 185 156 156 176 212 166 107 44 235 212 259 268 252 249 237 239 232 230 222 177 158 131 80 60 52 61 48 73 92 144 162 112 95 109 133 149 151 158 171 146 167
182 173 175 145 139 214 201 139 162 221 193 227 233 261 239 164 222 219 217 216 204 186 182 173 169 118 81 67 68 95 83 86 99 121 125 127 123 117 131 130 130 129 131 145
162 161 125 168 210 186 162 183 196 194 210 217 250 247 207 222 208 207 186 190 190 190 181 152 105 103 89 90 93 91 114 136 116 100 110 114 105 98 102 120 143 164 150 162
186 125 160 199 59 320 226 208 192 194 199 236 279 254 127 233 225 183 181 177 168 174 161 164 171 146 129 109 103 106 111 110 108 111 113 105 108 113 121 118 125 138 142 158
170 179 140 148 223 213 219 199 218 221 44 204 202 255 149 183 196 188 170 171 171 155 156 155 160 140 126 120 116 107 109 106 106 111 117 122 118 122 130 138 141 178 175 170
157 139 205 217 223 141 201 200 208 202 202 227 223 250 161 199 212 193 189 185 182 178 166 160 151 143 137 122 114 113 103 92 102 103 104 106 108 122 133 121 147 209 185 188
174 208 201 237 135 185 195 197 197 201 222 215 238 242 244 205 202 206 201 186 179 187 183 179 162 155 151 133 123 123 107 96 99 99 93 80 74 57 58 137 178 149 158 239
173 239 152 230 195 183 209 214 203 209 222 233 250 257 10 207 197 199 204 193 191 193 188 170 159 152 149 145 124 124 113 99 115 105 94 75 66 69 63 57 17 45 42 133
155 142 144 232 164 133 271 218 206 211 222 222 233 246 223 190 201 212 208 197 198 189 180 173 168 158 153 144 133 125 112 113 98 91 77 70 76 79 52 36 52 72 65 72
146 156 129 206 137 205 251 196 226 224 234 226 256 251 237 238 214 222 216 194 191 178 173 170 162 149 142 121 112 107 102 98 91 85 80 64 49 57 54 50 44 31 25 12
186 166 172 191 202 314 229 195 177 194 239 233 235 240 223 169 141 233 211 218 188 170 161 153 144 135 127 124 129 124 112 107 94 73 59 48 38 40 31 34 23 26 359 336
165 162 169 178 176 209 248 195 167 123 256 199 218 234 220 165 233 238 164 150 136 137 140 138 134 127 125 121 139 123 106 94 71 42 31 36 38 38 31 18 10 10 348 326
162 170 196 165 203 273 239 151 169 181 233 162 197 206 152 195 228 109 135 120 125 132 135 131 128 120 114 121 134 106 95 65 33 17 22 33 30 22 21 358 356 331 321 307
160 152 167 136 199 249 149 106 190 167 9 177 198 173 172 150 132 143 138 138 137 135 136 130 122 110 92 74 117 105 78 37 27 20 34 24 16 11 3 351 329 323 305 295
201 189 168 197 208 106 189 101 151 209 167 206 187 161 148 141 161 154 147 147 147 145 135 124 126 115 80 58 53 88 52 23 17 29 24 16 3 4 358 335 326 316 303 300
258 175 194 129 161 175 206 230 241 213 211 46 322 157 172 162 156 144 142 139 135 135 132 128 128 117 101 69 66 71 40 10 6 27 18 8 353 344 338 324 306 297 292 290
160 147 171 261 222 211 228 225 229 214 171 156 165 179 179 156 160 152 145 140 136 131 126 120 121 119 100 81 72 47 29 5 7 9 12 6 351 346 332 321 304 298 291 283
189 167 189 224 181 168 178 227 159 184 208 195 170 149 125 162 153 140 138 136 137 137 136 122 114 118 111 95 81 50 22 19 16 13 4 355 332 334 326 324 319 297 287 295